Location: McFarlands Corners
(41.4117°N, 81.3382°W)
Time: 05:50:19
(UTC+00:00)

Altair - All Passes

Search period start: 18 February 2026 00:00
Search period end: 28 February 2026 00:00
Orbit: 1502 x 1682 km, 47.2° (Epoch: 17 February)

Date Brightness Start Highest point End Pass type
(mag) Time Alt. Az. Time Alt. Az. Time Alt. Az.
18 Feb - 06:56:04 10° SE 06:58:38 11° ESE 07:01:13 10° ESE visible
18 Feb - 08:52:50 10° SSW 09:01:30 49° SE 09:10:20 10° ENE visible
18 Feb - 10:56:39 10° WSW 11:05:53 77° NNW 11:15:27 10° ENE visible
18 Feb - 13:02:13 10° WNW 13:11:29 62° N 13:21:08 10° E daylight
18 Feb - 15:07:19 10° WNW 15:16:53 88° SSW 15:26:50 10° ESE daylight
18 Feb - 17:12:31 10° WNW 17:20:58 36° SW 17:29:41 10° SSE daylight
19 Feb - 08:27:50 10° SSW 08:36:21 45° SE 08:45:01 10° ENE visible
19 Feb - 10:31:23 10° WSW 10:40:37 80° NNW 10:50:10 10° ENE visible
19 Feb - 12:36:56 10° WNW 12:46:10 62° N 12:55:45 10° E daylight
19 Feb - 14:42:05 10° WNW 14:51:37 88° NNE 15:01:32 10° ESE daylight
19 Feb - 16:47:11 10° WNW 16:55:49 39° SW 17:04:43 10° SSE daylight
20 Feb - 08:02:51 10° SSW 08:11:13 42° SE 08:19:42 10° ENE visible
20 Feb - 10:06:08 10° WSW 10:15:22 83° NNW 10:24:52 10° ENE visible
20 Feb - 12:11:39 10° W 12:20:51 61° N 12:30:24 10° E daylight
20 Feb - 14:16:51 10° WNW 14:26:21 85° NNE 14:36:14 10° ESE daylight
20 Feb - 16:21:53 10° WNW 16:30:39 42° SW 16:39:43 10° SSE daylight
21 Feb - 07:37:54 10° SSW 07:46:05 38° SE 07:54:22 10° ENE visible
21 Feb - 09:40:55 10° WSW 09:50:08 86° NNW 09:59:36 10° ENE visible
21 Feb - 11:46:21 10° W 11:55:32 61° N 12:05:03 10° E visible
21 Feb - 13:51:37 10° WNW 14:01:05 81° NNE 14:10:56 10° ESE daylight
21 Feb - 15:56:35 10° WNW 16:05:28 45° SW 16:14:41 10° SSE daylight
21 Feb - 18:07:13 10° WSW 18:08:27 10° WSW 18:09:41 10° SW daylight
22 Feb - 07:12:59 10° SSW 07:20:58 35° SE 07:29:01 10° ENE visible
22 Feb - 09:15:42 10° WSW 09:24:54 90° SSE 09:34:19 10° ENE visible
22 Feb - 11:21:05 10° W 11:30:14 62° N 11:39:41 10° ENE visible
22 Feb - 13:26:23 10° WNW 13:35:49 78° NNE 13:45:36 10° ESE daylight
22 Feb - 15:31:18 10° WNW 15:40:18 49° SW 15:49:37 10° SSE daylight
22 Feb - 17:40:05 10° WSW 17:43:22 12° WSW 17:46:41 10° SW daylight
23 Feb - 06:48:07 10° S 06:55:52 32° SE 07:03:38 10° ENE visible
23 Feb - 08:50:29 10° WSW 08:59:40 86° SSE 09:09:03 10° ENE visible
23 Feb - 10:55:47 10° W 11:04:55 62° N 11:14:21 10° ENE visible
23 Feb - 13:01:09 10° WNW 13:10:32 75° NNE 13:20:16 10° ESE daylight
23 Feb - 15:06:02 10° WNW 15:15:07 52° SW 15:24:32 10° SSE daylight
23 Feb - 17:13:54 10° W 17:18:17 14° WSW 17:22:43 10° SSW daylight
24 Feb - 06:23:16 10° S 06:30:46 29° SE 06:38:15 10° ENE visible
24 Feb - 08:25:17 10° SW 08:34:27 82° SSE 08:43:48 10° ENE visible
24 Feb - 10:30:29 10° W 10:39:37 63° N 10:49:01 10° ENE visible
24 Feb - 12:35:55 10° WNW 12:45:15 73° NNE 12:54:56 10° ESE daylight
24 Feb - 14:40:46 10° WNW 14:49:55 56° SW 14:59:25 10° SE daylight
24 Feb - 16:48:00 10° W 16:53:10 16° SW 16:58:27 10° SSW daylight
25 Feb - 05:58:30 10° S 06:05:39 26° SE 06:12:49 10° ENE visible
25 Feb - 08:00:06 10° SW 08:09:15 77° SSE 08:18:32 10° ENE visible
25 Feb - 10:05:11 10° W 10:14:19 64° N 10:23:41 10° ENE visible
25 Feb - 12:10:40 10° WNW 12:19:58 71° NNE 12:29:35 10° E daylight
25 Feb - 14:15:31 10° WNW 14:24:43 60° SW 14:34:16 10° SE daylight
25 Feb - 16:22:16 10° W 16:28:05 18° SW 16:34:01 10° SSW daylight
26 Feb - 05:33:45 10° S 05:40:34 24° SE 05:47:21 10° E visible
26 Feb - 07:34:56 10° SW 07:44:03 73° SSE 07:53:16 10° ENE visible
26 Feb - 09:39:54 10° W 09:49:01 65° N 09:58:23 10° ENE visible
26 Feb - 11:45:25 10° WNW 11:54:40 69° NNE 12:04:14 10° E daylight
26 Feb - 13:50:17 10° WNW 13:59:31 64° SW 14:09:06 10° SE daylight
26 Feb - 15:56:39 10° W 16:02:58 20° SW 16:09:27 10° SSW daylight
27 Feb - 05:09:05 10° S 05:15:28 21° SE 05:21:50 10° E night (unlit)
27 Feb - 07:09:47 10° SW 07:18:52 69° SE 07:28:01 10° ENE visible
27 Feb - 09:14:36 10° W 09:23:44 66° NNW 09:33:04 10° ENE visible
27 Feb - 11:20:09 10° WNW 11:29:23 67° NNE 11:38:53 10° E visible
27 Feb - 13:25:03 10° WNW 13:34:19 69° SW 13:43:56 10° SE daylight
27 Feb - 15:31:06 10° W 15:37:51 22° SW 15:44:48 10° S daylight
